Regional Weather Roundup
Issued by NWS

Home | Current Version | Previous Version | Graphics & Text | Print | Product List | Glossary On
Versions: 1 2 3 4 5 6 7 8 9 10 11 12 13 14 15 16 17 18 19 20 21 22 23 24 25 26 27 28 29 30 31 32 33 34 35 36 37 38 39 40 41 42 43 44 45 46 47 48 49 50
000
ASUS44 KMEG 210900
RWRTN
TENNESSEE HOURLY STATE WEATHER ROUNDUP
NATIONAL WEATHER SERVICE MEMPHIS TN
400 AM CDT TUE APR 21 2015

TNZ002-004-019-021-049-052-054-088>092-211000-
WEST TENNESSEE

CITY           SKY/WX    TMP DP  RH WIND       PRES   REMARKS
MEMPHIS INTL   CLEAR     47  37  68 SW3       29.99R
NWS MEMPHIS      N/A     44 N/A N/A MISG        N/A
JACKSON        CLEAR     44  39  82 SW6       29.96R
DYERSBURG      CLEAR     45  30  57 CALM      29.97R
PARIS            N/A     39  36  87 CALM      29.93S
LEXINGTON      CLEAR     41  39  93 CALM      29.94R
SAVANNAH       CLEAR     39  32  75 CALM      29.97R
$$

TNZ008-025-027-028-033-062-065-066-211000-
NORTH MIDDLE TENNESSEE

CITY           SKY/WX    TMP DP  RH WIND       PRES   REMARKS
NASHVILLE      PTCLDY    45  42  89 CALM      29.93R
CLARKSVILLE    CLEAR     43  39  86 SW3       29.91S
CROSSVILLE     MOCLDY    43  40  89 SW3       29.92R
$$

TNZ061-075-076-078-094-096-097-211000-
SOUTH MIDDLE TENNESSEE

CITY           SKY/WX    TMP DP  RH WIND       PRES   REMARKS
WINCHESTER     CLEAR     39  39 100 CALM      29.94R
SHELBYVILLE    CLEAR     43  43 100 CALM      29.94S
$$

TNZ017-018-042-046-047-211000-
NORTHEAST TENNESSEE

CITY           SKY/WX    TMP DP  RH WIND       PRES   REMARKS
TRI CITIES     CLOUDY    50  45  83 SW8       29.87S
ELIZABETHTON   PTSUNNY   46  43  87 W3        29.87S
$$

TNZ012-013-036-069-073-074-211000-
CENTRAL EAST TENNESSEE

CITY           SKY/WX    TMP DP  RH WIND       PRES   REMARKS
KNOXVILLE      CLEAR     48  42  80 SW7       29.90R
OAK RIDGE      PTCLDY    49  44  83 CALM      29.92R
GATLINBURG     MOSUNNY   50  39  66 SW6       29.89S
$$

TNZ083-085-099-211000-
SOUTHEAST TENNESSEE

CITY           SKY/WX    TMP DP  RH WIND       PRES   REMARKS
CHATTANOOGA    CLEAR     48  44  86 CALM      29.92S
$$

SKY/WX REPORTED AS FAIR MEANS FEW OR NO CLOUDS BELOW
12 THOUSAND FEET.



USA.gov is the U.S. government's official web portal to all federal, state and local government web resources and services.